START_TIME,STEP,MOV.,A46,t_acc.,A13,t_acc.,M47,t_acc.,A17,t_acc.,A28,t_acc.,M38,t_acc.
1979-08-01 09:00:24.400 ,0,0,,0,11.,4.8,1.,4.8,,0,0.,4.8,1.,4.8
1979-08-01 09:00:29.200 ,0,0,,0,4.,4.8,0.,4.8,,0,0.,4.8,2.,4.8
1979-08-01 09:00:34.000 ,0,0,,0,2.,4.8,1.,4.8,,0,0.,4.8,1.,4.8
1979-08-01 09:00:38.800 ,0,0,,0,0.,4.8,0.,4.8,,0,0.,4.8,2.,4.8
1979-08-01 09:00:43.600 ,0,0,,0,0.,4.8,0.,4.8,,0,0.,4.8,0.,4.8
1979-08-01 09:00:48.400 ,0,0,,0,0.,4.8,0.,4.8,,0,0.,4.8,0.,4.8
1979-08-01 09:00:53.200 ,0,0,,0,0.,4.8,0.,4.8,,0,0.,4.8,1.,4.8
1979-08-01 09:00:58.000 ,0,0,,0,0.,4.8,0.,4.8,,0,0.,4.8,5.,4.8
1979-08-01 09:01:02.800 ,0,0,,0,6.,4.8,1.,4.8,,0,0.,4.8,2.,4.8
1979-08-01 09:01:07.600 ,0,0,,0,1.,4.8,0.,4.8,,0,0.,4.8,0.,4.8
1979-08-01 09:01:12.400 ,0,0,,0,3.,4.8,0.,4.8,,0,0.,4.8,1.,4.8
1979-08-01 09:01:17.200 ,0,0,,0,4.,4.8,0.,4.8,,0,0.,4.8,2.,4.8
1979-08-01 09:01:22.000 ,0,0,,0,3.,4.8,2.,4.8,,0,0.,4.8,2.,4.8
1979-08-01 09:01:26.800 ,0,0,,0,0.,4.8,0.,4.8,,0,0.,4.8,2.,4.8
1979-08-01 09:01:31.600 ,0,0,,0,0.,4.8,0.,4.8,,0,0.,4.8,1.,4.8
1979-08-01 09:01:36.400 ,0,0,,0,0.,4.8,0.,4.8,,0,0.,4.8,3.,4.8
1979-08-01 09:01:41.200 ,0,0,,0,0.,4.8,0.,4.8,,0,0.,4.8,0.,4.8
1979-08-01 09:01:46.000 ,0,0,,0,0.,4.8,0.,4.8,,0,0.,4.8,0.,4.8
1979-08-01 09:01:50.800 ,0,0,,0,4.,4.8,0.,4.8,,0,0.,4.8,2.,4.8
1979-08-01 09:01:55.600 ,0,0,,0,,0,,0,,0,,0,,0
1979-08-01 09:02:00.400 ,0,0,,0,1.,4.8,0.,4.8,,0,0.,4.8,1.,4.8
1979-08-01 09:02:05.200 ,0,0,,0,4.,4.8,0.,4.8,,0,0.,4.8,0.,4.8
1979-08-01 09:02:10.000 ,0,0,,0,3.,4.8,0.,4.8,,0,0.,4.8,2.,4.8
1979-08-01 09:02:14.800 ,0,0,,0,0.,4.8,0.,4.8,,0,0.,4.8,0.,4.8
1979-08-01 09:02:19.600 ,0,0,,0,0.,4.8,0.,4.8,,0,0.,4.8,0.,4.8
1979-08-01 09:02:24.400 ,2,0,,0,0.,4.8,0.,4.8,,0,1.,4.8,1.,4.8
1979-08-01 09:02:29.200 ,2,0,,0,0.,4.8,0.,4.8,,0,0.,4.8,1.,4.8
1979-08-01 09:02:34.000 ,2,0,,0,0.,4.8,0.,4.8,,0,0.,4.8,1.,4.8
1979-08-01 09:02:38.800 ,2,0,,0,2.,4.8,0.,4.8,,0,0.,4.8,0.,4.8
1979-08-01 09:02:43.600 ,2,0,,0,4.,4.8,0.,4.8,,0,0.,4.8,0.,4.8
1979-08-01 09:02:48.400 ,2,0,,0,3.,4.8,0.,4.8,,0,0.,4.8,2.,4.8
1979-08-01 09:02:53.200 ,2,0,,0,4.,4.8,0.,4.8,,0,0.,4.8,0.,4.8
1979-08-01 09:02:58.000 ,2,0,,0,2.,4.8,0.,4.8,,0,0.,4.8,0.,4.8
1979-08-01 09:03:02.800 ,2,0,,0,0.,4.8,0.,4.8,,0,0.,4.8,2.,4.8
1979-08-01 09:03:07.600 ,2,0,,0,0.,4.8,0.,4.8,,0,0.,4.8,0.,4.8
1979-08-01 09:03:12.400 ,3,0,,0,0.,4.8,0.,4.8,,0,0.,4.8,0.,4.8
1979-08-01 09:03:17.200 ,3,0,,0,0.,4.8,0.,4.8,,0,0.,4.8,0.,4.8
1979-08-01 09:03:22.000 ,3,0,,0,1.,4.8,0.,4.8,,0,0.,4.8,0.,4.8
1979-08-01 09:03:26.800 ,3,0,,0,4.,4.8,0.,4.8,,0,0.,4.8,0.,4.8
1979-08-01 09:03:31.600 ,3,0,,0,1.,4.8,0.,4.8,,0,0.,4.8,0.,4.8
1979-08-01 09:03:36.400 ,3,0,,0,5.,4.8,0.,4.8,,0,0.,4.8,1.,4.8
1979-08-01 09:03:41.200 ,3,0,,0,3.,4.8,1.,4.8,,0,0.,4.8,0.,4.8
1979-08-01 09:03:46.000 ,3,0,,0,3.,4.8,0.,4.8,,0,0.,4.8,1.,4.8
1979-08-01 09:03:50.800 ,3,0,,0,0.,4.8,0.,4.8,,0,0.,4.8,1.,4.8
1979-08-01 09:03:55.600 ,3,0,,0,0.,4.8,0.,4.8,,0,0.,4.8,0.,4.8
1979-08-01 09:04:00.400 ,4,0,,0,0.,4.8,0.,4.8,,0,0.,4.8,0.,4.8
1979-08-01 09:04:05.200 ,4,0,,0,0.,4.8,0.,4.8,,0,0.,4.8,1.,4.8
1979-08-01 09:04:10.000 ,4,0,,0,1.,4.8,1.,4.8,,0,0.,4.8,0.,4.8
1979-08-01 09:04:14.800 ,4,0,,0,4.,4.8,0.,4.8,,0,0.,4.8,0.,4.8
1979-08-01 09:04:19.600 ,4,0,,0,2.,4.8,0.,4.8,,0,0.,4.8,0.,4.8
1979-08-01 09:04:24.400 ,4,0,,0,2.,4.8,0.,4.8,,0,0.,4.8,0.,4.8
1979-08-01 09:04:29.200 ,4,0,,0,1.,4.8,0.,4.8,,0,0.,4.8,0.,4.8
1979-08-01 09:04:34.000 ,4,0,,0,5.,4.8,0.,4.8,,0,0.,4.8,0.,4.8
1979-08-01 09:04:38.800 ,4,0,,0,0.,4.8,0.,4.8,,0,0.,4.8,0.,4.8
1979-08-01 09:04:43.600 ,4,0,,0,0.,4.8,0.,4.8,,0,0.,4.8,0.,4.8
1979-08-01 09:04:48.400 ,5,0,,0,0.,4.8,0.,4.8,,0,0.,4.8,0.,4.8
1979-08-01 09:04:53.200 ,5,0,,0,0.,4.8,0.,4.8,,0,0.,4.8,0.,4.8
1979-08-01 09:04:58.000 ,5,0,,0,1.,4.8,0.,4.8,,0,1.,4.8,0.,4.8
1979-08-01 09:05:02.800 ,5,0,,0,3.,4.8,0.,4.8,,0,0.,4.8,0.,4.8
1979-08-01 09:05:07.600 ,5,0,,0,3.,4.8,0.,4.8,,0,0.,4.8,0.,4.8
1979-08-01 09:05:12.400 ,0,0,,0,4.,4.8,0.,4.8,,0,0.,4.8,0.,4.8
1979-08-01 09:05:17.200 ,0,0,,0,2.,4.8,0.,4.8,,0,1.,4.8,1.,4.8
1979-08-01 09:05:22.000 ,0,0,,0,1.,4.8,0.,4.8,,0,0.,4.8,1.,4.8
1979-08-01 09:05:26.800 ,0,0,,0,,0,,0,,0,,0,,0
1979-08-01 09:05:31.600 ,0,0,,0,0.,4.8,0.,4.8,,0,0.,4.8,0.,4.8
1979-08-01 09:05:36.400 ,6,0,,0,0.,4.8,0.,4.8,,0,0.,4.8,0.,4.8
1979-08-01 09:05:41.200 ,6,0,,0,0.,4.8,0.,4.8,,0,0.,4.8,0.,4.8
1979-08-01 09:05:46.000 ,6,0,,0,0.,4.8,0.,4.8,,0,0.,4.8,1.,4.8
1979-08-01 09:05:50.800 ,6,0,,0,2.,4.8,0.,4.8,,0,0.,4.8,0.,4.8
1979-08-01 09:05:55.600 ,6,0,,0,3.,4.8,0.,4.8,,0,0.,4.8,1.,4.8
1979-08-01 09:06:00.400 ,6,0,,0,7.,4.8,0.,4.8,,0,0.,4.8,2.,4.8
1979-08-01 09:06:05.200 ,6,0,,0,6.,4.8,1.,4.8,,0,0.,4.8,0.,4.8
1979-08-01 09:06:10.000 ,6,0,,0,5.,4.8,0.,4.8,,0,0.,4.8,0.,4.8
1979-08-01 09:06:14.800 ,6,0,,0,0.,4.8,0.,4.8,,0,0.,4.8,1.,4.8
1979-08-01 09:06:19.600 ,6,0,,0,0.,4.8,0.,4.8,,0,0.,4.8,0.,4.8
1979-08-01 09:06:24.400 ,7,0,,0,0.,4.8,0.,4.8,,0,0.,4.8,1.,4.8
1979-08-01 09:06:29.200 ,7,0,,0,0.,4.8,0.,4.8,,0,0.,4.8,3.,4.8
1979-08-01 09:06:34.000 ,7,0,,0,,0,,0,,0,,0,,0
1979-08-01 09:06:38.800 ,7,0,,0,,0,,0,,0,,0,,0
1979-08-01 09:06:43.600 ,7,0,,0,22.,4.8,0.,4.8,,0,0.,4.8,0.,4.8
1979-08-01 09:06:48.400 ,7,0,,0,9.,4.8,0.,4.8,,0,0.,4.8,0.,4.8
1979-08-01 09:06:53.200 ,7,0,,0,13.,4.8,0.,4.8,,0,0.,4.8,0.,4.8
1979-08-01 09:06:58.000 ,7,0,,0,7.,4.8,0.,4.8,,0,0.,4.8,0.,4.8
1979-08-01 09:07:02.800 ,7,0,,0,0.,4.8,0.,4.8,,0,0.,4.8,0.,4.8
1979-08-01 09:07:07.600 ,7,0,,0,0.,4.8,0.,4.8,,0,0.,4.8,0.,4.8
1979-08-01 09:07:12.400 ,3,1,,0,0.,4.8,0.,4.8,,0,0.,4.8,0.,4.8
1979-08-01 09:07:17.200 ,3,1,,0,0.,4.8,0.,4.8,,0,0.,4.8,2.,4.8
1979-08-01 09:07:22.000 ,3,1,,0,2.,4.8,0.,4.8,,0,0.,4.8,1.,4.8
1979-08-01 09:07:26.800 ,3,1,,0,3.,4.8,0.,4.8,,0,0.,4.8,1.,4.8
1979-08-01 09:07:31.600 ,3,1,,0,1.,4.8,0.,4.8,,0,0.,4.8,0.,4.8
1979-08-01 09:07:36.400 ,0,1,,0,2.,4.8,0.,4.8,,0,0.,4.8,1.,4.8
1979-08-01 09:07:41.200 ,0,1,,0,3.,4.8,0.,4.8,,0,0.,4.8,1.,4.8
1979-08-01 09:07:46.000 ,0,1,,0,5.,4.8,0.,4.8,,0,0.,4.8,2.,4.8
1979-08-01 09:07:50.800 ,0,1,,0,0.,4.8,0.,4.8,,0,0.,4.8,1.,4.8
1979-08-01 09:07:55.600 ,0,1,,0,0.,4.8,0.,4.8,,0,0.,4.8,1.,4.8
1979-08-01 09:08:00.400 ,4,1,,0,0.,4.8,0.,4.8,,0,0.,4.8,0.,4.8
1979-08-01 09:08:05.200 ,4,1,,0,0.,4.8,0.,4.8,,0,0.,4.8,1.,4.8
1979-08-01 09:08:10.000 ,4,1,,0,0.,4.8,0.,4.8,,0,0.,4.8,1.,4.8
1979-08-01 09:08:14.800 ,4,1,,0,6.,4.8,0.,4.8,,0,0.,4.8,1.,4.8
1979-08-01 09:08:19.600 ,4,1,,0,0.,4.8,0.,4.8,,0,0.,4.8,0.,4.8
1979-08-01 09:08:24.400 ,7,1,,0,3.,4.8,0.,4.8,,0,0.,4.8,0.,4.8
1979-08-01 09:08:29.200 ,7,1,,0,3.,4.8,0.,4.8,,0,0.,4.8,1.,4.8
1979-08-01 09:08:34.000 ,7,1,,0,2.,4.8,0.,4.8,,0,0.,4.8,2.,4.8
1979-08-01 09:08:38.800 ,7,1,,0,0.,4.8,0.,4.8,,0,0.,4.8,0.,4.8
1979-08-01 09:08:43.600 ,7,1,,0,0.,4.8,0.,4.8,,0,0.,4.8,0.,4.8
1979-08-01 09:08:48.400 ,3,1,,0,0.,4.8,0.,4.8,,0,0.,4.8,1.,4.8
1979-08-01 09:08:53.200 ,3,1,,0,0.,4.8,0.,4.8,,0,0.,4.8,1.,4.8
1979-08-01 09:08:58.000 ,3,1,,0,1.,4.8,0.,4.8,,0,0.,4.8,0.,4.8
1979-08-01 09:09:02.800 ,3,1,,0,3.,4.8,0.,4.8,,0,0.,4.8,0.,4.8
1979-08-01 09:09:07.600 ,3,1,,0,8.,4.8,0.,4.8,,0,0.,4.8,0.,4.8
1979-08-01 09:09:12.400 ,0,1,,0,5.,4.8,0.,4.8,,0,0.,4.8,0.,4.8
1979-08-01 09:09:17.200 ,0,1,,0,6.,4.8,0.,4.8,,0,0.,4.8,0.,4.8
1979-08-01 09:09:22.000 ,0,1,,0,3.,4.8,0.,4.8,,0,0.,4.8,0.,4.8
1979-08-01 09:09:26.800 ,0,1,,0,0.,4.8,0.,4.8,,0,0.,4.8,1.,4.8
1979-08-01 09:09:31.600 ,0,1,,0,0.,4.8,0.,4.8,,0,0.,4.8,4.,4.8
1979-08-01 09:09:36.400 ,4,1,,0,0.,4.8,0.,4.8,,0,0.,4.8,3.,4.8
1979-08-01 09:09:41.200 ,4,1,,0,0.,4.8,0.,4.8,,0,0.,4.8,0.,4.8
1979-08-01 09:09:46.000 ,4,1,,0,2.,4.8,1.,4.8,,0,0.,4.8,0.,4.8
1979-08-01 09:09:50.800 ,4,1,,0,1.,4.8,0.,4.8,,0,0.,4.8,2.,4.8
1979-08-01 09:09:55.600 ,4,1,,0,0.,4.8,0.,4.8,,0,0.,4.8,0.,4.8
1979-08-01 09:10:00.400 ,7,1,,0,5.,4.8,0.,4.8,,0,0.,4.8,0.,4.8
1979-08-01 09:10:05.200 ,7,1,,0,8.,4.8,0.,4.8,,0,0.,4.8,1.,4.8
1979-08-01 09:10:10.000 ,7,1,,0,4.,4.8,0.,4.8,,0,0.,4.8,1.,4.8
1979-08-01 09:10:14.800 ,7,1,,0,,0,,0,,0,,0,,0
1979-08-01 09:10:19.600 ,7,1,,0,0.,4.8,0.,4.8,,0,0.,4.8,0.,4.8
1979-08-01 09:10:24.400 ,3,1,,0,0.,4.8,0.,4.8,,0,0.,4.8,1.,4.8
1979-08-01 09:10:29.200 ,3,1,,0,,0,,0,,0,,0,,0
1979-08-01 09:10:34.000 ,3,1,,0,0.,4.8,0.,4.8,,0,0.,4.8,1.,4.8
1979-08-01 09:10:38.800 ,3,1,,0,2.,4.8,0.,4.8,,0,0.,4.8,0.,4.8
1979-08-01 09:10:43.600 ,3,1,,0,6.,4.8,0.,4.8,,0,0.,4.8,0.,4.8
1979-08-01 09:10:48.400 ,0,1,,0,1.,4.8,0.,4.8,,0,0.,4.8,0.,4.8
1979-08-01 09:10:53.200 ,0,1,,0,2.,4.8,0.,4.8,,0,0.,4.8,1.,4.8
1979-08-01 09:10:58.000 ,0,1,,0,1.,4.8,0.,4.8,,0,0.,4.8,0.,4.8
1979-08-01 09:11:02.800 ,0,1,,0,0.,4.8,0.,4.8,,0,0.,4.8,2.,4.8
1979-08-01 09:11:07.600 ,0,1,,0,0.,4.8,0.,4.8,,0,0.,4.8,3.,4.8
1979-08-01 09:11:12.400 ,4,1,,0,0.,4.8,0.,4.8,,0,0.,4.8,1.,4.8
1979-08-01 09:11:17.200 ,4,1,,0,0.,4.8,0.,4.8,,0,0.,4.8,2.,4.8
1979-08-01 09:11:22.000 ,4,1,,0,0.,4.8,0.,4.8,,0,0.,4.8,0.,4.8
1979-08-01 09:11:26.800 ,4,1,,0,1.,4.8,0.,4.8,,0,0.,4.8,0.,4.8
1979-08-01 09:11:31.600 ,4,1,,0,3.,4.8,0.,4.8,,0,0.,4.8,0.,4.8
1979-08-01 09:11:36.400 ,7,1,,0,4.,4.8,0.,4.8,,0,0.,4.8,0.,4.8
1979-08-01 09:11:41.200 ,7,1,,0,1.,4.8,0.,4.8,,0,0.,4.8,0.,4.8
1979-08-01 09:11:46.000 ,7,1,,0,5.,4.8,0.,4.8,,0,0.,4.8,0.,4.8
1979-08-01 09:11:50.800 ,7,1,,0,0.,4.8,0.,4.8,,0,0.,4.8,0.,4.8
1979-08-01 09:11:55.600 ,7,1,,0,0.,4.8,0.,4.8,,0,0.,4.8,0.,4.8
1979-08-01 09:12:00.400 ,3,1,,0,0.,4.8,0.,4.8,,0,0.,4.8,0.,4.8
1979-08-01 09:12:05.200 ,3,1,,0,0.,4.8,0.,4.8,,0,0.,4.8,0.,4.8
1979-08-01 09:12:10.000 ,3,1,,0,0.,4.8,0.,4.8,,0,0.,4.8,1.,4.8
1979-08-01 09:12:14.800 ,3,1,,0,4.,4.8,0.,4.8,,0,0.,4.8,0.,4.8
1979-08-01 09:12:19.600 ,3,1,,0,1.,4.8,0.,4.8,,0,0.,4.8,0.,4.8
1979-08-01 09:12:24.400 ,0,1,,0,2.,4.8,0.,4.8,,0,0.,4.8,0.,4.8
1979-08-01 09:12:29.200 ,0,1,,0,2.,4.8,1.,4.8,,0,0.,4.8,0.,4.8
1979-08-01 09:12:34.000 ,0,1,,0,3.,4.8,0.,4.8,,0,0.,4.8,3.,4.8
1979-08-01 09:12:38.800 ,0,1,,0,,0,,0,,0,,0,,0
1979-08-01 09:12:43.600 ,0,1,,0,0.,4.8,0.,4.8,,0,0.,4.8,2.,4.8
1979-08-01 09:12:48.400 ,3,1,,0,0.,4.8,0.,4.8,,0,0.,4.8,0.,4.8
1979-08-01 09:12:53.200 ,3,1,,0,0.,4.8,0.,4.8,,0,0.,4.8,1.,4.8
1979-08-01 09:12:58.000 ,3,1,,0,0.,4.8,0.,4.8,,0,0.,4.8,0.,4.8
1979-08-01 09:13:02.800 ,3,1,,0,2.,4.8,0.,4.8,,0,0.,4.8,0.,4.8
1979-08-01 09:13:07.600 ,3,1,,0,5.,4.8,0.,4.8,,0,0.,4.8,0.,4.8
1979-08-01 09:13:12.400 ,7,1,,0,3.,4.8,0.,4.8,,0,0.,4.8,0.,4.8
1979-08-01 09:13:17.200 ,7,1,,0,3.,4.8,0.,4.8,,0,0.,4.8,0.,4.8
1979-08-01 09:13:22.000 ,7,1,,0,8.,4.8,0.,4.8,,0,0.,4.8,1.,4.8
1979-08-01 09:13:26.800 ,7,1,,0,0.,4.8,0.,4.8,,0,0.,4.8,0.,4.8
1979-08-01 09:13:31.600 ,7,1,,0,0.,4.8,0.,4.8,,0,0.,4.8,0.,4.8
1979-08-01 09:13:36.400 ,3,1,,0,0.,4.8,0.,4.8,,0,0.,4.8,1.,4.8
1979-08-01 09:13:41.200 ,3,1,,0,0.,4.8,0.,4.8,,0,0.,4.8,0.,4.8
1979-08-01 09:13:46.000 ,3,1,,0,0.,4.8,1.,4.8,,0,0.,4.8,0.,4.8
1979-08-01 09:13:50.800 ,3,1,,0,8.,4.8,0.,4.8,,0,0.,4.8,0.,4.8
1979-08-01 09:13:55.600 ,3,1,,0,2.,4.8,0.,4.8,,0,0.,4.8,0.,4.8
1979-08-01 09:14:00.400 ,0,1,,0,0.,4.8,0.,4.8,,0,0.,4.8,0.,4.8
1979-08-01 09:14:05.200 ,0,1,,0,1.,4.8,0.,4.8,,0,0.,4.8,1.,4.8
1979-08-01 09:14:10.000 ,0,1,,0,4.,4.8,0.,4.8,,0,0.,4.8,1.,4.8
1979-08-01 09:14:14.800 ,0,1,,0,0.,4.8,0.,4.8,,0,0.,4.8,1.,4.8
1979-08-01 09:14:19.600 ,0,1,,0,1.,4.8,0.,4.8,,0,0.,4.8,1.,4.8
1979-08-01 09:14:24.400 ,4,1,,0,0.,4.8,0.,4.8,,0,0.,4.8,1.,4.8
1979-08-01 09:14:29.200 ,4,1,,0,0.,4.8,0.,4.8,,0,0.,4.8,0.,4.8
1979-08-01 09:14:34.000 ,4,1,,0,0.,4.8,0.,4.8,,0,0.,4.8,0.,4.8
1979-08-01 09:14:38.800 ,4,1,,0,0.,4.8,0.,4.8,,0,0.,4.8,0.,4.8
1979-08-01 09:14:43.600 ,4,1,,0,5.,4.8,0.,4.8,,0,0.,4.8,0.,4.8
1979-08-01 09:14:48.400 ,7,1,,0,2.,4.8,0.,4.8,,0,0.,4.8,0.,4.8
1979-08-01 09:14:53.200 ,7,1,,0,3.,4.8,1.,4.8,,0,0.,4.8,0.,4.8
1979-08-01 09:14:58.000 ,7,1,,0,1.,4.8,0.,4.8,,0,0.,4.8,2.,4.8
1979-08-01 09:15:02.800 ,7,1,,0,0.,4.8,0.,4.8,,0,0.,4.8,0.,4.8
1979-08-01 09:15:07.600 ,7,1,,0,0.,4.8,0.,4.8,,0,0.,4.8,0.,4.8
1979-08-01 09:15:12.400 ,3,1,,0,0.,4.8,0.,4.8,,0,0.,4.8,1.,4.8
1979-08-01 09:15:17.200 ,3,1,,0,0.,4.8,0.,4.8,,0,0.,4.8,0.,4.8
1979-08-01 09:15:22.000 ,3,1,,0,0.,4.8,0.,4.8,,0,0.,4.8,0.,4.8
1979-08-01 09:15:26.800 ,3,1,,0,3.,4.8,0.,4.8,,0,0.,4.8,0.,4.8
1979-08-01 09:15:31.600 ,3,1,,0,5.,4.8,1.,4.8,,0,0.,4.8,0.,4.8
1979-08-01 09:15:36.400 ,0,1,,0,3.,4.8,0.,4.8,,0,0.,4.8,0.,4.8
1979-08-01 09:15:41.200 ,0,1,,0,1.,4.8,1.,4.8,,0,0.,4.8,0.,4.8
1979-08-01 09:15:46.000 ,0,1,,0,2.,4.8,0.,4.8,,0,0.,4.8,0.,4.8
1979-08-01 09:15:50.800 ,0,1,,0,0.,4.8,0.,4.8,,0,0.,4.8,1.,4.8
1979-08-01 09:15:55.600 ,0,1,,0,0.,4.8,0.,4.8,,0,0.,4.8,1.,4.8
1979-08-01 09:16:00.400 ,4,1,,0,0.,4.8,0.,4.8,,0,0.,4.8,0.,4.8
1979-08-01 09:16:05.200 ,4,1,,0,0.,4.8,0.,4.8,,0,0.,4.8,1.,4.8
1979-08-01 09:16:10.000 ,4,1,,0,1.,4.8,0.,4.8,,0,0.,4.8,0.,4.8
1979-08-01 09:16:14.800 ,4,1,,0,3.,4.8,0.,4.8,,0,1.,4.8,0.,4.8
1979-08-01 09:16:19.600 ,4,1,,0,0.,4.8,0.,4.8,,0,0.,4.8,0.,4.8
1979-08-01 09:16:24.400 ,7,1,,0,1.,4.8,0.,4.8,,0,0.,4.8,0.,4.8
1979-08-01 09:16:29.200 ,7,1,,0,5.,4.8,0.,4.8,,0,0.,4.8,0.,4.8
1979-08-01 09:16:34.000 ,7,1,,0,6.,4.8,2.,4.8,,0,0.,4.8,2.,4.8
1979-08-01 09:16:38.800 ,7,1,,0,0.,4.8,0.,4.8,,0,0.,4.8,0.,4.8
1979-08-01 09:16:43.600 ,7,1,,0,0.,4.8,0.,4.8,,0,0.,4.8,0.,4.8
1979-08-01 09:16:48.400 ,3,1,,0,0.,4.8,0.,4.8,,0,0.,4.8,1.,4.8
1979-08-01 09:16:53.200 ,3,1,,0,0.,4.8,0.,4.8,,0,0.,4.8,0.,4.8
1979-08-01 09:16:58.000 ,3,1,,0,0.,4.8,0.,4.8,,0,0.,4.8,0.,4.8
1979-08-01 09:17:02.800 ,3,1,,0,3.,4.8,0.,4.8,,0,0.,4.8,0.,4.8
1979-08-01 09:17:07.600 ,3,1,,0,2.,4.8,0.,4.8,,0,0.,4.8,0.,4.8
1979-08-01 09:17:12.400 ,0,1,,0,3.,4.8,0.,4.8,,0,0.,4.8,0.,4.8
1979-08-01 09:17:17.200 ,0,1,,0,4.,4.8,0.,4.8,,0,0.,4.8,0.,4.8
1979-08-01 09:17:22.000 ,0,1,,0,3.,4.8,0.,4.8,,0,0.,4.8,1.,4.8
1979-08-01 09:17:26.800 ,0,1,,0,0.,4.8,0.,4.8,,0,0.,4.8,0.,4.8
1979-08-01 09:17:31.600 ,0,1,,0,0.,4.8,0.,4.8,,0,0.,4.8,0.,4.8
1979-08-01 09:17:36.400 ,0,0,,0,0.,4.8,0.,4.8,,0,0.,4.8,0.,4.8
1979-08-01 09:17:41.200 ,0,0,,0,0.,4.8,0.,4.8,,0,0.,4.8,0.,4.8
1979-08-01 09:17:46.000 ,0,0,,0,0.,4.8,0.,4.8,,0,0.,4.8,0.,4.8
1979-08-01 09:17:50.800 ,0,0,,0,6.,4.8,0.,4.8,,0,0.,4.8,0.,4.8
1979-08-01 09:17:55.600 ,0,0,,0,1.,4.8,0.,4.8,,0,0.,4.8,1.,4.8
1979-08-01 09:18:00.400 ,0,0,,0,1.,4.8,0.,4.8,,0,0.,4.8,0.,4.8
1979-08-01 09:18:05.200 ,0,0,,0,4.,4.8,0.,4.8,,0,0.,4.8,0.,4.8
1979-08-01 09:18:10.000 ,0,0,,0,5.,4.8,2.,4.8,,0,0.,4.8,1.,4.8
1979-08-01 09:18:14.800 ,0,0,,0,0.,4.8,0.,4.8,,0,0.,4.8,0.,4.8
1979-08-01 09:18:19.600 ,0,0,,0,0.,4.8,0.,4.8,,0,0.,4.8,0.,4.8
1979-08-01 09:18:24.400 ,5,0,,0,0.,4.8,0.,4.8,,0,0.,4.8,0.,4.8
1979-08-01 09:18:29.200 ,5,0,,0,0.,4.8,0.,4.8,,0,0.,4.8,0.,4.8
1979-08-01 09:18:34.000 ,5,0,,0,0.,4.8,0.,4.8,,0,1.,4.8,0.,4.8
1979-08-01 09:18:38.800 ,5,0,,0,3.,4.8,0.,4.8,,0,0.,4.8,1.,4.8
1979-08-01 09:18:43.600 ,5,0,,0,1.,4.8,0.,4.8,,0,0.,4.8,0.,4.8
1979-08-01 09:18:48.400 ,5,0,,0,3.,4.8,0.,4.8,,0,0.,4.8,0.,4.8
1979-08-01 09:18:53.200 ,5,0,,0,3.,4.8,0.,4.8,,0,0.,4.8,0.,4.8
1979-08-01 09:18:58.000 ,5,0,,0,0.,4.8,0.,4.8,,0,0.,4.8,0.,4.8
1979-08-01 09:19:02.800 ,5,0,,0,0.,4.8,0.,4.8,,0,0.,4.8,0.,4.8
1979-08-01 09:19:07.600 ,5,0,,0,0.,4.8,0.,4.8,,0,0.,4.8,0.,4.8
1979-08-01 09:19:12.400 ,4,0,,0,0.,4.8,0.,4.8,,0,0.,4.8,0.,4.8
1979-08-01 09:19:17.200 ,4,0,,0,0.,4.8,0.,4.8,,0,0.,4.8,0.,4.8
1979-08-01 09:19:22.000 ,4,0,,0,0.,4.8,0.,4.8,,0,0.,4.8,0.,4.8
1979-08-01 09:19:26.800 ,4,0,,0,3.,4.8,0.,4.8,,0,0.,4.8,1.,4.8
1979-08-01 09:19:31.600 ,4,0,,0,3.,4.8,0.,4.8,,0,0.,4.8,0.,4.8
1979-08-01 09:19:36.400 ,4,0,,0,3.,4.8,0.,4.8,,0,0.,4.8,0.,4.8
1979-08-01 09:19:41.200 ,4,0,,0,1.,4.8,0.,4.8,,0,0.,4.8,1.,4.8
1979-08-01 09:19:46.000 ,4,0,,0,2.,4.8,0.,4.8,,0,0.,4.8,0.,4.8
1979-08-01 09:19:50.800 ,4,0,,0,0.,4.8,0.,4.8,,0,0.,4.8,0.,4.8
1979-08-01 09:19:55.600 ,4,0,,0,0.,4.8,0.,4.8,,0,0.,4.8,0.,4.8
1979-08-01 09:20:00.400 ,3,0,,0,0.,4.8,0.,4.8,,0,0.,4.8,0.,4.8
1979-08-01 09:20:05.200 ,3,0,,0,0.,4.8,0.,4.8,,0,0.,4.8,0.,4.8
1979-08-01 09:20:10.000 ,3,0,,0,0.,4.8,0.,4.8,,0,0.,4.8,1.,4.8
1979-08-01 09:20:14.800 ,3,0,,0,6.,4.8,0.,4.8,,0,0.,4.8,0.,4.8
1979-08-01 09:20:19.600 ,3,0,,0,6.,4.8,0.,4.8,,0,1.,4.8,1.,4.8
1979-08-01 09:20:24.400 ,3,0,,0,2.,4.8,0.,4.8,,0,0.,4.8,0.,4.8
1979-08-01 09:20:29.200 ,3,0,,0,6.,4.8,0.,4.8,,0,0.,4.8,0.,4.8
1979-08-01 09:20:34.000 ,3,0,,0,4.,4.8,0.,4.8,,0,0.,4.8,1.,4.8
1979-08-01 09:20:38.800 ,3,0,,0,0.,4.8,0.,4.8,,0,0.,4.8,2.,4.8
1979-08-01 09:20:43.600 ,3,0,,0,0.,4.8,0.,4.8,,0,0.,4.8,0.,4.8
1979-08-01 09:20:48.400 ,2,0,,0,0.,4.8,0.,4.8,,0,0.,4.8,0.,4.8
1979-08-01 09:20:53.200 ,2,0,,0,0.,4.8,0.,4.8,,0,1.,4.8,1.,4.8
1979-08-01 09:20:58.000 ,2,0,,0,1.,4.8,0.,4.8,,0,0.,4.8,1.,4.8
1979-08-01 09:21:02.800 ,2,0,,0,3.,4.8,0.,4.8,,0,0.,4.8,1.,4.8
1979-08-01 09:21:07.600 ,2,0,,0,5.,4.8,0.,4.8,,0,0.,4.8,0.,4.8
1979-08-01 09:21:12.400 ,2,0,,0,2.,4.8,0.,4.8,,0,0.,4.8,1.,4.8
1979-08-01 09:21:17.200 ,2,0,,0,4.,4.8,0.,4.8,,0,0.,4.8,1.,4.8
1979-08-01 09:21:22.000 ,2,0,,0,3.,4.8,0.,4.8,,0,0.,4.8,0.,4.8
1979-08-01 09:21:26.800 ,2,0,,0,0.,4.8,0.,4.8,,0,0.,4.8,1.,4.8
1979-08-01 09:21:31.600 ,2,0,,0,0.,4.8,0.,4.8,,0,0.,4.8,0.,4.8
1979-08-01 09:21:36.400 ,1,0,,0,0.,4.8,0.,4.8,,0,1.,4.8,1.,4.8
1979-08-01 09:21:41.200 ,1,0,,0,0.,4.8,0.,4.8,,0,0.,4.8,0.,4.8
1979-08-01 09:21:46.000 ,1,0,,0,0.,4.8,0.,4.8,,0,0.,4.8,3.,4.8
1979-08-01 09:21:50.800 ,1,0,,0,7.,4.8,1.,4.8,,0,0.,4.8,0.,4.8
1979-08-01 09:21:55.600 ,1,0,,0,1.,4.8,0.,4.8,,0,0.,4.8,0.,4.8
1979-08-01 09:22:00.400 ,1,0,,0,4.,4.8,1.,4.8,,0,0.,4.8,0.,4.8
1979-08-01 09:22:05.200 ,1,0,,0,2.,4.8,0.,4.8,,0,0.,4.8,0.,4.8
1979-08-01 09:22:10.000 ,1,0,,0,1.,4.8,0.,4.8,,0,0.,4.8,1.,4.8
1979-08-01 09:22:14.800 ,1,0,,0,0.,4.8,0.,4.8,,0,0.,4.8,0.,4.8
1979-08-01 09:22:19.600 ,1,0,,0,0.,4.8,0.,4.8,,0,0.,4.8,0.,4.8
1979-08-01 09:22:24.400 ,0,0,,0,1.,4.8,0.,4.8,,0,0.,4.8,0.,4.8
1979-08-01 09:22:29.200 ,0,0,,0,0.,4.8,0.,4.8,,0,0.,4.8,2.,4.8
1979-08-01 09:22:34.000 ,0,0,,0,0.,4.8,0.,4.8,,0,0.,4.8,1.,4.8
1979-08-01 09:22:38.800 ,0,0,,0,3.,4.8,0.,4.8,,0,0.,4.8,3.,4.8
1979-08-01 09:22:43.600 ,0,0,,0,8.,4.8,1.,4.8,,0,0.,4.8,2.,4.8
1979-08-01 09:22:48.400 ,0,0,,0,6.,4.8,0.,4.8,,0,0.,4.8,1.,4.8
1979-08-01 09:22:53.200 ,0,0,,0,8.,4.8,2.,4.8,,0,0.,4.8,0.,4.8
1979-08-01 09:22:58.000 ,0,0,,0,4.,4.8,0.,4.8,,0,0.,4.8,0.,4.8
1979-08-01 09:23:02.800 ,0,0,,0,0.,4.8,0.,4.8,,0,0.,4.8,0.,4.8
1979-08-01 09:23:07.600 ,0,0,,0,0.,4.8,0.,4.8,,0,0.,4.8,4.,4.8
1979-08-01 09:23:12.400 ,0,0,,0,0.,4.8,0.,4.8,,0,1.,4.8,0.,4.8
1979-08-01 09:23:17.200 ,0,0,,0,0.,4.8,0.,4.8,,0,0.,4.8,2.,4.8
1979-08-01 09:23:22.000 ,0,0,,0,2.,4.8,0.,4.8,,0,0.,4.8,2.,4.8
1979-08-01 09:23:26.800 ,0,0,,0,3.,4.8,0.,4.8,,0,0.,4.8,0.,4.8
1979-08-01 09:23:31.600 ,0,0,,0,7.,4.8,0.,4.8,,0,0.,4.8,1.,4.8
1979-08-01 09:23:36.400 ,0,0,,0,2.,4.8,0.,4.8,,0,0.,4.8,1.,4.8
1979-08-01 09:23:41.200 ,0,0,,0,4.,4.8,0.,4.8,,0,0.,4.8,1.,4.8
1979-08-01 09:23:46.000 ,0,0,,0,7.,4.8,1.,4.8,,0,0.,4.8,3.,4.8
1979-08-01 09:23:50.800 ,0,0,,0,0.,4.8,0.,4.8,,0,0.,4.8,2.,4.8
1979-08-01 09:23:55.600 ,0,0,,0,0.,4.8,0.,4.8,,0,0.,4.8,1.,4.8
1979-08-01 09:24:00.400 ,1,0,,0,0.,4.8,0.,4.8,,0,0.,4.8,0.,4.8
1979-08-01 09:24:05.200 ,1,0,,0,0.,4.8,0.,4.8,,0,0.,4.8,2.,4.8
1979-08-01 09:24:10.000 ,1,0,,0,1.,4.8,0.,4.8,,0,0.,4.8,0.,4.8
1979-08-01 09:24:14.800 ,1,0,,0,6.,4.8,0.,4.8,,0,0.,4.8,0.,4.8
1979-08-01 09:24:19.600 ,1,0,,0,6.,4.8,1.,4.8,,0,0.,4.8,0.,4.8
1979-08-01 09:24:24.400 ,1,0,,0,1.,4.8,0.,4.8,,0,0.,4.8,0.,4.8
1979-08-01 09:24:29.200 ,1,0,,0,4.,4.8,0.,4.8,,0,0.,4.8,0.,4.8
1979-08-01 09:24:34.000 ,1,0,,0,7.,4.8,0.,4.8,,0,0.,4.8,0.,4.8
1979-08-01 09:24:38.800 ,1,0,,0,0.,4.8,0.,4.8,,0,0.,4.8,0.,4.8
1979-08-01 09:24:43.600 ,1,0,,0,0.,4.8,0.,4.8,,0,0.,4.8,0.,4.8
1979-08-01 09:24:48.400 ,2,0,,0,0.,4.8,0.,4.8,,0,0.,4.8,0.,4.8
1979-08-01 09:24:53.200 ,2,0,,0,0.,4.8,0.,4.8,,0,0.,4.8,1.,4.8
1979-08-01 09:24:58.000 ,2,0,,0,0.,4.8,0.,4.8,,0,0.,4.8,1.,4.8
1979-08-01 09:25:02.800 ,2,0,,0,3.,4.8,0.,4.8,,0,0.,4.8,0.,4.8
1979-08-01 09:25:07.600 ,2,0,,0,3.,4.8,0.,4.8,,0,0.,4.8,0.,4.8
1979-08-01 09:25:12.400 ,0,0,,0,4.,4.8,0.,4.8,,0,0.,4.8,0.,4.8
1979-08-01 09:25:17.200 ,0,0,,0,4.,4.8,0.,4.8,,0,0.,4.8,0.,4.8
1979-08-01 09:25:22.000 ,0,0,,0,2.,4.8,0.,4.8,,0,0.,4.8,0.,4.8
1979-08-01 09:25:26.800 ,0,0,,0,,0,,0,,0,,0,,0
1979-08-01 09:25:31.600 ,0,0,,0,0.,4.8,0.,4.8,,0,0.,4.8,0.,4.8
1979-08-01 09:25:36.400 ,3,0,,0,0.,4.8,0.,4.8,,0,0.,4.8,0.,4.8
1979-08-01 09:25:41.200 ,3,0,,0,0.,4.8,0.,4.8,,0,0.,4.8,1.,4.8
1979-08-01 09:25:46.000 ,3,0,,0,0.,4.8,0.,4.8,,0,0.,4.8,0.,4.8
1979-08-01 09:25:50.800 ,3,0,,0,6.,4.8,1.,4.8,,0,0.,4.8,0.,4.8
1979-08-01 09:25:55.600 ,3,0,,0,3.,4.8,1.,4.8,,0,0.,4.8,2.,4.8
1979-08-01 09:26:00.400 ,3,0,,0,3.,4.8,1.,4.8,,0,0.,4.8,0.,4.8
1979-08-01 09:26:05.200 ,3,0,,0,2.,4.8,0.,4.8,,0,0.,4.8,0.,4.8
1979-08-01 09:26:10.000 ,3,0,,0,1.,4.8,0.,4.8,,0,1.,4.8,0.,4.8
1979-08-01 09:26:14.800 ,3,0,,0,0.,4.8,0.,4.8,,0,0.,4.8,0.,4.8
1979-08-01 09:26:19.600 ,3,0,,0,0.,4.8,0.,4.8,,0,0.,4.8,0.,4.8
1979-08-01 09:26:24.400 ,4,0,,0,0.,4.8,0.,4.8,,0,0.,4.8,0.,4.8
1979-08-01 09:26:29.200 ,4,0,,0,0.,4.8,0.,4.8,,0,0.,4.8,0.,4.8
1979-08-01 09:26:34.000 ,4,0,,0,2.,4.8,0.,4.8,,0,0.,4.8,1.,4.8
1979-08-01 09:26:38.800 ,4,0,,0,2.,4.8,0.,4.8,,0,0.,4.8,0.,4.8
1979-08-01 09:26:43.600 ,4,0,,0,4.,4.8,0.,4.8,,0,0.,4.8,1.,4.8
1979-08-01 09:26:48.400 ,4,0,,0,4.,4.8,0.,4.8,,0,0.,4.8,0.,4.8
1979-08-01 09:26:53.200 ,4,0,,0,2.,4.8,0.,4.8,,0,0.,4.8,0.,4.8
1979-08-01 09:26:58.000 ,4,0,,0,2.,4.8,0.,4.8,,0,0.,4.8,0.,4.8
1979-08-01 09:27:02.800 ,4,0,,0,0.,4.8,0.,4.8,,0,0.,4.8,0.,4.8
1979-08-01 09:27:07.600 ,4,0,,0,0.,4.8,0.,4.8,,0,0.,4.8,0.,4.8
1979-08-01 09:27:12.400 ,5,0,,0,0.,4.8,0.,4.8,,0,0.,4.8,1.,4.8
1979-08-01 09:27:17.200 ,5,0,,0,0.,4.8,0.,4.8,,0,0.,4.8,2.,4.8
1979-08-01 09:27:22.000 ,5,0,,0,0.,4.8,0.,4.8,,0,0.,4.8,0.,4.8
1979-08-01 09:27:26.800 ,5,0,,0,6.,4.8,0.,4.8,,0,0.,4.8,0.,4.8
1979-08-01 09:27:31.600 ,5,0,,0,5.,4.8,0.,4.8,,0,0.,4.8,1.,4.8
1979-08-01 09:27:36.400 ,5,0,,0,3.,4.8,0.,4.8,,0,0.,4.8,0.,4.8
1979-08-01 09:27:41.200 ,5,0,,0,4.,4.8,0.,4.8,,0,0.,4.8,0.,4.8
1979-08-01 09:27:46.000 ,5,0,,0,2.,4.8,0.,4.8,,0,0.,4.8,0.,4.8
1979-08-01 09:27:50.800 ,5,0,,0,0.,4.8,0.,4.8,,0,0.,4.8,0.,4.8
1979-08-01 09:27:55.600 ,5,0,,0,0.,4.8,0.,4.8,,0,0.,4.8,0.,4.8
1979-08-01 09:28:00.400 ,6,0,,0,0.,4.8,0.,4.8,,0,0.,4.8,0.,4.8
1979-08-01 09:28:05.200 ,6,0,,0,0.,4.8,0.,4.8,,0,0.,4.8,1.,4.8
1979-08-01 09:28:10.000 ,6,0,,0,0.,4.8,0.,4.8,,0,0.,4.8,2.,4.8
1979-08-01 09:28:14.800 ,6,0,,0,3.,4.8,0.,4.8,,0,0.,4.8,0.,4.8
1979-08-01 09:28:19.600 ,6,0,,0,3.,4.8,0.,4.8,,0,0.,4.8,1.,4.8
1979-08-01 09:28:24.400 ,6,0,,0,7.,4.8,1.,4.8,,0,0.,4.8,0.,4.8
1979-08-01 09:28:29.200 ,6,0,,0,3.,4.8,0.,4.8,,0,0.,4.8,0.,4.8
1979-08-01 09:28:34.000 ,6,0,,0,1.,4.8,0.,4.8,,0,0.,4.8,0.,4.8
1979-08-01 09:28:38.800 ,6,0,,0,0.,4.8,0.,4.8,,0,0.,4.8,0.,4.8
1979-08-01 09:28:43.600 ,6,0,,0,0.,4.8,0.,4.8,,0,0.,4.8,1.,4.8
1979-08-01 09:28:48.400 ,7,0,,0,0.,4.8,0.,4.8,,0,0.,4.8,0.,4.8
1979-08-01 09:28:53.200 ,7,0,,0,0.,4.8,0.,4.8,,0,0.,4.8,0.,4.8
1979-08-01 09:28:58.000 ,7,0,,0,3.,4.8,0.,4.8,,0,0.,4.8,0.,4.8
1979-08-01 09:29:02.800 ,7,0,,0,13.,4.8,0.,4.8,,0,0.,4.8,0.,4.8
1979-08-01 09:29:07.600 ,7,0,,0,14.,4.8,0.,4.8,,0,0.,4.8,0.,4.8
1979-08-01 09:29:12.400 ,7,0,,0,6.,4.8,0.,4.8,,0,0.,4.8,0.,4.8
1979-08-01 09:29:17.200 ,7,0,,0,10.,4.8,0.,4.8,,0,0.,4.8,0.,4.8
1979-08-01 09:29:22.000 ,7,0,,0,12.,4.8,0.,4.8,,0,0.,4.8,0.,4.8
1979-08-01 09:29:26.800 ,7,0,,0,0.,4.8,0.,4.8,,0,0.,4.8,1.,4.8
1979-08-01 09:29:31.600 ,7,0,,0,0.,4.8,0.,4.8,,0,0.,4.8,0.,4.8
1979-08-01 09:29:36.400 ,7,0,,0,0.,4.8,0.,4.8,,0,0.,4.8,1.,4.8
1979-08-01 09:29:41.200 ,7,0,,0,0.,4.8,0.,4.8,,0,0.,4.8,0.,4.8
1979-08-01 09:29:46.000 ,7,0,,0,0.,4.8,0.,4.8,,0,0.,4.8,0.,4.8
1979-08-01 09:29:50.800 ,7,0,,0,7.,4.8,0.,4.8,,0,0.,4.8,0.,4.8
1979-08-01 09:29:55.600 ,7,0,,0,12.,4.8,0.,4.8,,0,0.,4.8,0.,4.8
1979-08-01 09:30:00.400 ,7,0,,0,10.,4.8,0.,4.8,,0,0.,4.8,0.,4.8
1979-08-01 09:30:05.200 ,7,0,,0,11.,4.8,0.,4.8,,0,0.,4.8,0.,4.8
1979-08-01 09:30:10.000 ,7,0,,0,6.,4.8,0.,4.8,,0,0.,4.8,0.,4.8
1979-08-01 09:30:14.800 ,7,0,,0,0.,4.8,0.,4.8,,0,0.,4.8,0.,4.8
1979-08-01 09:30:19.600 ,7,0,,0,0.,4.8,0.,4.8,,0,0.,4.8,0.,4.8